When you browse on this site, cookies collect data to enhance your experience and personalize the content and advertising you see.
Visit our Privacy Policy to learn more. By continuing to use the site, you agree to this use of cookies and data.
  • In Lithuania
  • List of Countries
  • For 7 days
  • Water Temperature
  • Weather Map
  • Weather Widgets
  • user-avatar
    Login

    Hourly Weather Rumbek

    Today, 2 April, Thursday

    Time Temperature Precipitation Wind Pressure Humidity
    00:00 +35°C° 0 mm 2 mps 719 mmHg 35%
    01:00 +34°C° 0 mm 2 mps 718 mmHg 37%
    02:00 +32°C° 0 mm 2 mps 718 mmHg 40%
    03:00 +31°C° 0 mm 2 mps 718 mmHg 42%
    04:00 +30°C° 0 mm 1 mps 718 mmHg 45%
    05:00 +28°C° 0 mm 0 mps 719 mmHg 48%
    06:00 +32°C° 0.1 mm 1 mps 719 mmHg 44%
    07:00 +34°C° 0.1 mm 1 mps 720 mmHg 39%
    08:00 +36°C° 0.1 mm 1 mps 721 mmHg 35%
    09:00 +39°C° 0 mm 2 mps 721 mmHg 32%
    10:00 +41°C° 0 mm 2 mps 721 mmHg 28%
    11:00 +43°C° 0 mm 2 mps 721 mmHg 24%
    12:00 +44°C° 0 mm 3 mps 720 mmHg 23%
    13:00 +43°C° 0 mm 3 mps 719 mmHg 22%
    14:00 +43°C° 0 mm 3 mps 718 mmHg 21%
    15:00 +43°C° 0 mm 3 mps 718 mmHg 21%
    16:00 +42°C° 0 mm 2 mps 718 mmHg 21%
    17:00 +42°C° 0 mm 2 mps 718 mmHg 22%
    18:00 +40°C° 0.1 mm 2 mps 718 mmHg 26%
    19:00 +38°C° 0.1 mm 2 mps 718 mmHg 30%
    20:00 +36°C° 0.1 mm 2 mps 718 mmHg 34%
    21:00 +34°C° 0 mm 2 mps 718 mmHg 41%
    22:00 +32°C° 0 mm 2 mps 718 mmHg 47%
    23:00 +30°C° 0 mm 2 mps 718 mmHg 54%

    Tomorrow, 3 April, Friday

    Time Temperature Precipitation Wind Pressure Humidity
    00:00 +30°C° 0 mm 2 mps 718 mmHg 55%
    01:00 +29°C° 0 mm 2 mps 717 mmHg 57%
    02:00 +28°C° 0 mm 2 mps 717 mmHg 59%
    03:00 +28°C° 0 mm 1 mps 717 mmHg 60%
    04:00 +27°C° 0 mm 1 mps 717 mmHg 61%
    05:00 +27°C° 0 mm 1 mps 718 mmHg 62%
    06:00 +29°C° 0 mm 1 mps 719 mmHg 56%
    07:00 +29°C° 0 mm 0 mps 720 mmHg 49%
    08:00 +32°C° 0 mm 0 mps 721 mmHg 42%
    09:00 +36°C° 0 mm 1 mps 721 mmHg 36%
    10:00 +40°C° 0 mm 1 mps 720 mmHg 30%
    11:00 +43°C° 0 mm 2 mps 720 mmHg 24%
    12:00 +43°C° 0 mm 2 mps 719 mmHg 21%
    13:00 +45°C° 0 mm 2 mps 718 mmHg 19%
    14:00 +46°C° 0 mm 3 mps 718 mmHg 16%
    15:00 +45°C° 0 mm 3 mps 717 mmHg 16%
    16:00 +43°C° 0 mm 2 mps 717 mmHg 17%
    17:00 +43°C° 0 mm 2 mps 716 mmHg 18%
    18:00 +40°C° 0 mm 2 mps 716 mmHg 21%
    19:00 +37°C° 0 mm 1 mps 717 mmHg 24%
    20:00 +35°C° 0 mm 1 mps 717 mmHg 26%
    21:00 +35°C° 0 mm 1 mps 717 mmHg 28%
    22:00 +34°C° 0 mm 1 mps 717 mmHg 29%
    23:00 +33°C° 0 mm 1 mps 717 mmHg 30%

    Day after tomorrow, 4 April, Saturday

    Time Temperature Precipitation Wind Pressure Humidity
    00:00 +33°C° 0 mm 1 mps 717 mmHg 31%
    01:00 +32°C° 0 mm 1 mps 717 mmHg 32%
    02:00 +32°C° 0 mm 1 mps 716 mmHg 34%
    03:00 +31°C° 0 mm 2 mps 717 mmHg 36%
    04:00 +31°C° 0 mm 2 mps 717 mmHg 37%
    05:00 +31°C° 0 mm 2 mps 717 mmHg 39%
    06:00 +32°C° 0 mm 2 mps 718 mmHg 37%
    07:00 +35°C° 0 mm 2 mps 719 mmHg 35%
    08:00 +37°C° 0 mm 2 mps 721 mmHg 32%
    09:00 +39°C° 0 mm 2 mps 721 mmHg 29%
    10:00 +42°C° 0 mm 2 mps 721 mmHg 25%
    11:00 +45°C° 0 mm 2 mps 721 mmHg 21%
    12:00 +43°C° 0.1 mm 2 mps 720 mmHg 23%
    13:00 +43°C° 0.1 mm 3 mps 719 mmHg 25%
    14:00 +42°C° 0.1 mm 4 mps 718 mmHg 27%
    15:00 +40°C° 0.2 mm 3 mps 718 mmHg 29%
    16:00 +39°C° 0.2 mm 3 mps 718 mmHg 31%
    17:00 +38°C° 0.2 mm 2 mps 718 mmHg 34%
    18:00 +36°C° 0 mm 2 mps 718 mmHg 38%
    19:00 +34°C° 0 mm 3 mps 718 mmHg 42%
    20:00 +33°C° 0 mm 3 mps 718 mmHg 47%
    21:00 +31°C° 0 mm 2 mps 719 mmHg 50%
    22:00 +30°C° 0 mm 2 mps 719 mmHg 53%
    23:00 +30°C° 0 mm 2 mps 719 mmHg 56%

    5 April, Sunday

    Time Temperature Precipitation Wind Pressure Humidity
    00:00 +29°C° 0 mm 2 mps 719 mmHg 58%
    01:00 +29°C° 0 mm 2 mps 719 mmHg 61%
    02:00 +28°C° 0 mm 2 mps 719 mmHg 64%
    03:00 +28°C° 0 mm 2 mps 719 mmHg 65%
    04:00 +28°C° 0 mm 2 mps 719 mmHg 67%
    05:00 +27°C° 0 mm 2 mps 720 mmHg 68%
    06:00 +29°C° 0 mm 2 mps 720 mmHg 63%
    07:00 +30°C° 0 mm 2 mps 721 mmHg 58%
    08:00 +31°C° 0 mm 2 mps 722 mmHg 53%
    09:00 +36°C° 0 mm 2 mps 722 mmHg 44%
    10:00 +39°C° 0 mm 1 mps 723 mmHg 35%
    11:00 +43°C° 0 mm 1 mps 723 mmHg 26%
    12:00 +42°C° 0 mm 1 mps 722 mmHg 26%
    13:00 +42°C° 0 mm 1 mps 720 mmHg 26%
    14:00 +42°C° 0 mm 2 mps 719 mmHg 26%
    15:00 +41°C° 0.1 mm 2 mps 719 mmHg 28%
    16:00 +39°C° 0.1 mm 2 mps 719 mmHg 30%
    17:00 +38°C° 0.1 mm 2 mps 718 mmHg 32%
    18:00 +36°C° 0.1 mm 1 mps 718 mmHg 36%
    19:00 +34°C° 0.1 mm 1 mps 719 mmHg 40%
    20:00 +31°C° 0.1 mm 0 mps 719 mmHg 43%
    21:00 +33°C° 0 mm 1 mps 719 mmHg 44%
    22:00 +32°C° 0 mm 1 mps 719 mmHg 45%
    23:00 +32°C° 0 mm 1 mps 720 mmHg 46%

    6 April, Monday

    Time Temperature Precipitation Wind Pressure Humidity
    00:00 +31°C° 0.1 mm 2 mps 720 mmHg 49%
    01:00 +31°C° 0.1 mm 2 mps 719 mmHg 52%
    02:00 +30°C° 0.1 mm 3 mps 719 mmHg 55%
    03:00 +30°C° 0 mm 3 mps 719 mmHg 57%
    04:00 +30°C° 0 mm 3 mps 719 mmHg 59%
    05:00 +29°C° 0 mm 2 mps 719 mmHg 61%
    06:00 +30°C° 0 mm 2 mps 720 mmHg 58%
    07:00 +31°C° 0 mm 2 mps 721 mmHg 55%
    08:00 +32°C° 0 mm 2 mps 722 mmHg 52%
    09:00 +36°C° 0 mm 2 mps 722 mmHg 44%
    10:00 +38°C° 0 mm 3 mps 722 mmHg 36%
    11:00 +42°C° 0 mm 3 mps 722 mmHg 28%
    12:00 +42°C° 0 mm 3 mps 721 mmHg 27%
    13:00 +41°C° 0 mm 2 mps 720 mmHg 26%
    14:00 +42°C° 0 mm 2 mps 719 mmHg 25%
    15:00 +40°C° 0.3 mm 3 mps 719 mmHg 28%
    16:00 +39°C° 0.3 mm 3 mps 718 mmHg 31%
    17:00 +38°C° 0.3 mm 3 mps 718 mmHg 34%
    18:00 +36°C° 0.3 mm 3 mps 718 mmHg 39%
    19:00 +34°C° 0.3 mm 2 mps 719 mmHg 44%
    20:00 +31°C° 0.3 mm 2 mps 719 mmHg 50%
    21:00 +31°C° 0.1 mm 1 mps 719 mmHg 50%
    22:00 +31°C° 0.1 mm 1 mps 720 mmHg 51%
    23:00 +29°C° 0.1 mm 0 mps 720 mmHg 51%

    7 April, Tuesday

    Time Temperature Precipitation Wind Pressure Humidity
    00:00 +30°C° 0 mm 1 mps 719 mmHg 52%
    01:00 +30°C° 0 mm 1 mps 719 mmHg 53%
    02:00 +29°C° 0 mm 1 mps 718 mmHg 54%
    03:00 +29°C° 0 mm 1 mps 718 mmHg 55%
    04:00 +29°C° 0 mm 1 mps 719 mmHg 56%
    05:00 +29°C° 0 mm 1 mps 719 mmHg 57%
    06:00 +30°C° 0 mm 1 mps 719 mmHg 53%
    07:00 +32°C° 0 mm 2 mps 720 mmHg 49%
    08:00 +34°C° 0 mm 2 mps 721 mmHg 45%
    09:00 +37°C° 0 mm 3 mps 721 mmHg 38%
    10:00 +40°C° 0 mm 3 mps 721 mmHg 31%
    11:00 +43°C° 0 mm 3 mps 721 mmHg 23%
    12:00 +44°C° 0 mm 3 mps 720 mmHg 22%
    13:00 +45°C° 0 mm 2 mps 718 mmHg 20%
    14:00 +46°C° 0 mm 2 mps 717 mmHg 18%
    15:00 +44°C° 0 mm 1 mps 717 mmHg 19%
    16:00 +43°C° 0 mm 1 mps 717 mmHg 20%
    17:00 +42°C° 0 mm 1 mps 716 mmHg 21%
    18:00 +40°C° 0 mm 1 mps 717 mmHg 23%
    19:00 +39°C° 0 mm 1 mps 717 mmHg 25%
    20:00 +34°C° 0 mm 0 mps 717 mmHg 28%
    21:00 +33°C° 0 mm 0 mps 717 mmHg 29%
    22:00 +33°C° 0 mm 0 mps 718 mmHg 30%
    23:00 +34°C° 0 mm 1 mps 718 mmHg 31%
    Show more